When you browse on this site, cookies collect data to enhance your experience and personalize the content and advertising you see.
Visit our Privacy Policy to learn more. By continuing to use the site, you agree to this use of cookies and data.

Previsão horária em Innsbruck

Hoje, 13 Agosto, Quinta-feira

Tempo Temperatura Precipitação Vento Pressão Humidade
00:00 +12°C° 0 mm 1 m/s 600 mmHg 86%
01:00 +11°C° 0 mm 1 m/s 600 mmHg 86%
02:00 +11°C° 0.1 mm 1 m/s 599 mmHg 86%
03:00 +11°C° 0.1 mm 1 m/s 599 mmHg 87%
04:00 +10°C° 0.1 mm 1 m/s 599 mmHg 87%
05:00 +11°C° 0.2 mm 1 m/s 599 mmHg 86%
06:00 +12°C° 0.2 mm 1 m/s 600 mmHg 84%
07:00 +13°C° 0.2 mm 1 m/s 600 mmHg 83%
08:00 +15°C° 0.7 mm 1 m/s 601 mmHg 78%
09:00 +16°C° 0.7 mm 1 m/s 601 mmHg 74%
10:00 +19°C° 0.7 mm 1 m/s 602 mmHg 69%
11:00 +19°C° 1.7 mm 1 m/s 602 mmHg 70%
12:00 +19°C° 1.7 mm 1 m/s 602 mmHg 70%
13:00 +19°C° 1.7 mm 1 m/s 601 mmHg 71%
14:00 +18°C° 1.7 mm 1 m/s 601 mmHg 74%
15:00 +18°C° 1.7 mm 1 m/s 601 mmHg 76%
16:00 +16°C° 1.7 mm 1 m/s 600 mmHg 79%
17:00 +15°C° 1.1 mm 1 m/s 600 mmHg 83%
18:00 +14°C° 1.1 mm 1 m/s 600 mmHg 87%
19:00 +13°C° 1.1 mm 1 m/s 599 mmHg 91%
20:00 +12°C° 0.8 mm 1 m/s 599 mmHg 92%
21:00 +12°C° 0.8 mm 1 m/s 599 mmHg 94%
22:00 +11°C° 0.8 mm 1 m/s 599 mmHg 95%
23:00 +11°C° 0.5 mm 1 m/s 599 mmHg 95%

Amanhã, 14 Agosto, Sexta-feira

Tempo Temperatura Precipitação Vento Pressão Humidade
00:00 +11°C° 0.5 mm 1 m/s 599 mmHg 94%
01:00 +11°C° 0.5 mm 1 m/s 599 mmHg 94%
02:00 +11°C° 0.4 mm 1 m/s 598 mmHg 94%
03:00 +9°C° 0.4 mm 0 m/s 598 mmHg 94%
04:00 +9°C° 0.4 mm 0 m/s 598 mmHg 93%
05:00 +10°C° 0.2 mm 0 m/s 598 mmHg 91%
06:00 +10°C° 0.2 mm 0 m/s 598 mmHg 89%
07:00 +11°C° 0.2 mm 0 m/s 599 mmHg 87%
08:00 +11°C° 0.9 mm 0 m/s 599 mmHg 85%
09:00 +12°C° 0.9 mm 0 m/s 599 mmHg 84%
10:00 +14°C° 0.9 mm 1 m/s 600 mmHg 82%
11:00 +14°C° 0.7 mm 1 m/s 599 mmHg 82%
12:00 +14°C° 0.7 mm 1 m/s 599 mmHg 82%
13:00 +14°C° 0.7 mm 1 m/s 599 mmHg 81%
14:00 +14°C° 0.8 mm 1 m/s 599 mmHg 83%
15:00 +13°C° 0.8 mm 1 m/s 599 mmHg 85%
16:00 +13°C° 0.8 mm 1 m/s 598 mmHg 87%
17:00 +12°C° 0.5 mm 1 m/s 598 mmHg 88%
18:00 +12°C° 0.5 mm 1 m/s 598 mmHg 88%
19:00 +11°C° 0.5 mm 1 m/s 598 mmHg 89%
20:00 +10°C° 0 mm 1 m/s 598 mmHg 89%
21:00 +9°C° 0 mm 1 m/s 598 mmHg 89%
22:00 +8°C° 0 mm 1 m/s 597 mmHg 89%
23:00 +8°C° 0 mm 1 m/s 597 mmHg 89%

Depois de amanhã, 15 Agosto, Sábado

Tempo Temperatura Precipitação Vento Pressão Humidade
00:00 +8°C° 0 mm 1 m/s 597 mmHg 89%
01:00 +7°C° 0 mm 1 m/s 597 mmHg 89%
02:00 +7°C° 0 mm 1 m/s 597 mmHg 89%
03:00 +7°C° 0 mm 1 m/s 597 mmHg 89%
04:00 +7°C° 0 mm 1 m/s 596 mmHg 90%
05:00 +8°C° 0 mm 1 m/s 597 mmHg 88%
06:00 +9°C° 0 mm 1 m/s 598 mmHg 86%
07:00 +10°C° 0 mm 1 m/s 598 mmHg 84%
08:00 +13°C° 0 mm 1 m/s 599 mmHg 75%
09:00 +15°C° 0 mm 1 m/s 600 mmHg 66%
10:00 +18°C° 0 mm 1 m/s 601 mmHg 57%
11:00 +19°C° 0 mm 1 m/s 601 mmHg 53%
12:00 +20°C° 0 mm 1 m/s 601 mmHg 50%
13:00 +20°C° 0 mm 1 m/s 601 mmHg 46%
14:00 +20°C° 0.3 mm 1 m/s 601 mmHg 49%
15:00 +19°C° 0.3 mm 1 m/s 600 mmHg 53%
16:00 +19°C° 0.3 mm 1 m/s 600 mmHg 57%
17:00 +16°C° 0.4 mm 1 m/s 599 mmHg 68%
18:00 +14°C° 0.4 mm 1 m/s 598 mmHg 79%
19:00 +12°C° 0.4 mm 1 m/s 598 mmHg 90%
20:00 +11°C° 0.2 mm 1 m/s 597 mmHg 91%
21:00 +10°C° 0.2 mm 1 m/s 597 mmHg 91%
22:00 +8°C° 0.2 mm 0 m/s 597 mmHg 92%
23:00 +8°C° 0 mm 1 m/s 596 mmHg 92%

16 Agosto, Domingo

Tempo Temperatura Precipitação Vento Pressão Humidade
00:00 +8°C° 0 mm 1 m/s 596 mmHg 92%
01:00 +8°C° 0 mm 1 m/s 596 mmHg 91%
02:00 +8°C° 0 mm 1 m/s 596 mmHg 91%
03:00 +7°C° 0 mm 1 m/s 596 mmHg 90%
04:00 +7°C° 0 mm 1 m/s 596 mmHg 90%
05:00 +9°C° 0 mm 1 m/s 596 mmHg 87%
06:00 +9°C° 0 mm 0 m/s 597 mmHg 84%
07:00 +11°C° 0 mm 0 m/s 598 mmHg 80%
08:00 +14°C° 0 mm 1 m/s 599 mmHg 72%
09:00 +16°C° 0 mm 1 m/s 600 mmHg 63%
10:00 +19°C° 0 mm 1 m/s 601 mmHg 55%
11:00 +20°C° 0.4 mm 1 m/s 601 mmHg 53%
12:00 +20°C° 0.4 mm 1 m/s 601 mmHg 52%
13:00 +21°C° 0.4 mm 1 m/s 601 mmHg 50%
14:00 +20°C° 1 mm 1 m/s 600 mmHg 56%
15:00 +19°C° 1 mm 1 m/s 600 mmHg 62%
16:00 +16°C° 1 mm 1 m/s 599 mmHg 68%
17:00 +15°C° 0.9 mm 1 m/s 598 mmHg 74%
18:00 +13°C° 0.9 mm 0 m/s 598 mmHg 80%
19:00 +11°C° 0.9 mm 0 m/s 597 mmHg 86%
20:00 +10°C° 0.1 mm 0 m/s 597 mmHg 87%
21:00 +9°C° 0.1 mm 0 m/s 597 mmHg 87%
22:00 +9°C° 0.1 mm 1 m/s 597 mmHg 88%
23:00 +9°C° 0 mm 1 m/s 596 mmHg 87%

17 Agosto, Segunda-feira

Tempo Temperatura Precipitação Vento Pressão Humidade
00:00 +9°C° 0 mm 1 m/s 596 mmHg 87%
01:00 +9°C° 0 mm 1 m/s 596 mmHg 86%
02:00 +8°C° 0 mm 1 m/s 595 mmHg 86%
03:00 +8°C° 0 mm 1 m/s 595 mmHg 85%
04:00 +8°C° 0 mm 1 m/s 595 mmHg 84%
05:00 +9°C° 0 mm 1 m/s 596 mmHg 82%
06:00 +11°C° 0 mm 1 m/s 596 mmHg 80%
07:00 +12°C° 0 mm 1 m/s 597 mmHg 78%
08:00 +14°C° 0.2 mm 1 m/s 597 mmHg 71%
09:00 +16°C° 0.2 mm 1 m/s 598 mmHg 64%
10:00 +19°C° 0.2 mm 1 m/s 599 mmHg 57%
11:00 +16°C° 1 mm 1 m/s 598 mmHg 66%
12:00 +14°C° 1 mm 1 m/s 597 mmHg 75%
13:00 +13°C° 1 mm 2 m/s 597 mmHg 84%
14:00 +13°C° 2 mm 1 m/s 596 mmHg 85%
15:00 +12°C° 2 mm 1 m/s 596 mmHg 86%
16:00 +12°C° 2 mm 1 m/s 596 mmHg 86%
17:00 +11°C° 1.1 mm 1 m/s 596 mmHg 90%
18:00 +11°C° 1.1 mm 1 m/s 596 mmHg 93%
19:00 +9°C° 1.1 mm 2 m/s 596 mmHg 97%
20:00 +10°C° 0.7 mm 1 m/s 596 mmHg 96%
21:00 +9°C° 0.7 mm 1 m/s 596 mmHg 96%
22:00 +9°C° 0.7 mm 1 m/s 596 mmHg 95%
23:00 +8°C° 0.1 mm 1 m/s 596 mmHg 95%

18 Agosto, Terça-feira

Tempo Temperatura Precipitação Vento Pressão Humidade
00:00 +8°C° 0.1 mm 1 m/s 596 mmHg 94%
01:00 +7°C° 0.1 mm 1 m/s 595 mmHg 94%
02:00 +7°C° 0 mm 1 m/s 595 mmHg 94%
03:00 +6°C° 0 mm 1 m/s 595 mmHg 94%
04:00 +6°C° 0 mm 1 m/s 595 mmHg 94%
05:00 +7°C° 0 mm 1 m/s 595 mmHg 94%
06:00 +7°C° 0 mm 1 m/s 595 mmHg 93%
07:00 +8°C° 0 mm 1 m/s 596 mmHg 92%
08:00 +10°C° 0.1 mm 1 m/s 597 mmHg 84%
09:00 +12°C° 0.1 mm 1 m/s 597 mmHg 75%
10:00 +13°C° 0.1 mm 1 m/s 598 mmHg 67%
11:00 +14°C° 0 mm 1 m/s 598 mmHg 61%
12:00 +15°C° 0 mm 2 m/s 599 mmHg 54%
13:00 +16°C° 0 mm 2 m/s 599 mmHg 48%
14:00 +16°C° 0.2 mm 2 m/s 598 mmHg 53%
15:00 +15°C° 0.2 mm 2 m/s 598 mmHg 58%
16:00 +15°C° 0.2 mm 2 m/s 598 mmHg 63%
17:00 +13°C° 0.1 mm 2 m/s 597 mmHg 72%
18:00 +11°C° 0.1 mm 1 m/s 597 mmHg 81%
19:00 +10°C° 0.1 mm 1 m/s 596 mmHg 90%
20:00 +9°C° 0 mm 1 m/s 596 mmHg 91%
21:00 +8°C° 0 mm 1 m/s 596 mmHg 93%
22:00 +7°C° 0 mm 1 m/s 596 mmHg 94%
23:00 +7°C° 0 mm 1 m/s 596 mmHg 94%
Mostrar mais